Погода в Поселке завода Мосрентген

Россия / Московская область     55°37′15″N   37°28′25″E
темп.,
°C
ветер,
м/с
пор.,
м/с
влажн.,
%
обл.,
%
осадки,
мм/ч
давл.,
гПа
погр.,
м
21 апреля, ср
ср2100:00+2всв4999100 0.7 1012481
03:00+2св4899100 1.9 1008365
06:00+1ссв2499100 2.1 1004183
09:00+2зюз3599100 3.5 1004312
12:00+3зюз4788100 0.1 1005751
15:00+4зюз4781100 0.1 10071100
18:00+5зюз3784100 0.1 1008504
21:00+4ююз3889100 0.1 1010264
22 апреля, чт
чт2200:00+4ююз3892100 0.1 1011282
03:00+4ююз499198 0.1 1012296
06:00+2ююз4109536 0.0 1013286
09:00+7ююз6981100 0.0 1014591
12:00+10ююз687379 0.0 1015983
15:00+12ююз686691 0.3 10151270
18:00+11ю5107264 0.0 1014791
21:00+9ююв51286100 0.6 1015356
23 апреля, пт
пт2300:00+8ю5118959 0.5 1014319
03:00+7ю4129345 0.5 1014288
06:00+7ю5148838 0.0 1014396
09:00+11ю6137490 0.1 1014666
12:00+15ю9155437 0.5 10132067
15:00+15ю71357100 1.4 10122005
18:00+10зюз348199 1.0 1013512
21:00+7ссз2389100 1.8 1011198
24 апреля, сб
сб2400:00+6зсз3492100 5.0 1011291
03:00+3з4797100 13.1 1009443
06:00+3з3697100 6.2 1009544
09:00+4з3796100 7.7 1008550
12:00+7з5664100 0.8 10081465
15:00+9зюз774986 1.0 10081851
18:00+8з57485 0.0 10081341
21:00+4зюз38715 0.0 1009316
25 апреля, вс
вс2500:00+2зюз410765 0.0 1009285
03:00+1зюз410885 0.0 1009323
06:000зюз410918 0.0 1009380
09:00+4зюз69625 0.0 10091109
12:00+6зюз685392 0.1 10091604
15:00+7зюз7849100 0.7 10091836
18:00+5з586322 0.6 10101196
21:00+2зюз36765 0.6 1011315